Retour au catalogue

ELEKTRON 1 DEB *

ActifUNKNOWN
NORAD 18589·DEBRIS·🇷🇺 Russia

Lancé Jan 30, 1964 depuis Baikonur Cosmodrome

Loading…

Prochains Passages (prochaines 24 heures)

TLE

FraisSource: Space-Track

Époque: Sep 14, 2026, 03:46 UTC

1 18589U 64006N   26257.15720978  .00017064  00000-0  69853-1 0  9998
2 18589  58.9529 174.4544 2078966  83.0256 300.0956  9.98029425447862

Suivez ELEKTRON 1 DEB * en temps réel avec AllMySat

Download on the App Store